Showing default

NAHUEL I2 (ANIK C2), 14133

Orbit data source: Space-Track

NAHUEL I2 (ANIK C2), 14133 is a payload satellite owned by Telesat (AR) in GEO that was launched on Sat, 18 Jun 1983 UTC via an SPACE SHUTTLE launch vehicle from the Air Force Eastern Test Range (AFETR). Payload-class satellites include a variety of spacecraft equipped with specific instruments for various scientific and technological missions. These include communications satellites like Starlink; space stations such as the ISS; scientific satellites like the Hubble; Earth observation satellites from companies like Planet Labs, Umbra, and HawkEye 360; GPS; miniature CubeSats for education and research; and military/defense satellites.

Not visible in the next 10 days
Identifier
14133, 1983-059B
Orbit
GEO
Country
Flag of UnknownUnknown / ARGN
Related business
Manufacturer
Hughes
Mission
Non-operational spacecraft
Bus & Motor
HS-376, TE-M-700-5
Mass
1,118 kg wet, 444 kg dry
Launch date (UTC)
1983-06-18 (43 years ago)
Launch vehicle
SPACE SHUTTLE
Launch site
Air Force Eastern Test Range (AFETR)
Object type
Payload
Rocket body
Debris
Shape & HBR
Unknown
Radar Cross Section
Large (>1 m²)

Expand to show TLE details & history
Last TLE update: 1 day ago

TLE from 1 day ago
0 NAHUEL I2 (ANIK C2)
1 14133U 83059B   26062.00190987 -.00000204  00000-0  00000+0 0  9993
2 14133  13.0109 336.9569 0034853 116.5775 243.7958  0.99126236 45098
Epoch: 2026-03-03T00:02Z
TLE epoch observation values (Epoch: 2026-03-03T00:02:45.012Z)
Latitude
-0.00001°
Longitude
175.52531°
Altitude
36,176.39 km
Speed
3.058 km/s
True Right ascension
22h 28m 00s
True Declination
0° 00' 00"
Sunlit
Object was in daylight at epoch
Visualization orbit readout
Latitude
Unknown
Longitude
Unknown
Altitude
Unknown
Speed
Unknown
Apparent Right ascension
Unknown
Apparent Declination
Unknown
Sunlit
N/A
Visualization observer readout
Local Sidereal Time
13:09:08
Azimuth
Unknown
Elevation
Unknown
Doppler factor
Unknown
Orbital elements
Apogee altitude
36,259.897 km
Perigee altitude
35,963.716 km
Semi-major axis
42,489.943 km
Eccentricity
0.00349
Inclination
13.0109°
RAAN
336.9569°
Arg. of periapsis
116.5775°
True anomaly
243.43815°
Mean anomaly
243.7958°
Eccentric anomaly
243.61691°
Mean motion
0.24781 °/min
Orbital period
1,452.74 mins
BSTAR
0
Loading maneuver chart data...
Computing Atmospheric mass density...
Loading historical data...
Loading historical data...
Loading historical data...
Loading historical data...
Loading historical data...
Loading historical data...
Loading historical data...

Documentation

Showing up to 5 results
|